Nantucket, MA

1:36 AM EST on January 20, 2017 (GMT -0500)
Nantucket Memorial

Weather History for KACK - April, 2014

Change the Weather History Date:

Tuesday, April 15, 2014

  Actual Average Record
Temperature  
Mean Temperature 54 °F -  
Max Temperature 57 °F 51 °F 62 °F (2015)
Min Temperature 50 °F 38 °F 27 °F (1959)
Degree Days  
Heating Degree Days 12    
Growing Degree Days 4 (Base 50)    
Moisture  
Dew Point 49 °F    
Average Humidity 84    
Maximum Humidity 89    
Minimum Humidity 74    
Precipitation  
Precipitation 0.03 in - - ()
Sea Level Pressure  
Sea Level Pressure 29.82 in    
Wind  
Wind Speed 19 mph (South)    
Max Wind Speed 28 mph    
Max Gust Speed 37 mph    
Visibility 6 miles    
Events Rain    
Averages and records for this station are not official NWS values.
T = Trace of Precipitation, MM = Missing Value Source: NWS Daily Summary

Daily Weather History Graph

Daily Weather History Graph

Search for Another Location

Airport or City:

Trip Planner

Search our weather history database for the weather conditions in past years. The results will help you decide how hot, cold, wet, or windy it might be!

Date:

Astronomy

Apr. 15, 2014 Rise Set
Actual Time 6:00 AM EDT 7:20 PM EDT
Civil Twilight 5:32 AM EDT 7:49 PM EDT
Nautical Twilight 4:57 AM EDT 8:23 PM EDT
Astronomical Twilight 4:21 AM EDT 8:59 PM EDT
Moon 7:58 PM EDT (4/15) 6:06 AM EDT (4/15)
Length of Visible Light 14h 16m
Length of Day
13h 19m
Full, 100% of the Moon is Illuminated
Apr 15
Full
Apr 22
Last Quarter
Apr 29
New
May 6
First Quarter
May 14
Full

Hourly Weather History & Observations

Time (EDT) Temp. Dew Point Humidity Pressure Visibility Wind Dir Wind Speed Gust Speed Precip Events Conditions
12:53 AM 50.0 °F 46.9 °F 89% 30.01 in 7.0 mi South 16.1 mph - N/A   Mostly Cloudy
1:53 AM 51.1 °F 48.0 °F 89% 29.99 in 7.0 mi South 15.0 mph - N/A   Mostly Cloudy
2:53 AM 51.1 °F 48.0 °F 89% 29.99 in 7.0 mi South 16.1 mph - N/A   Overcast
3:53 AM 50.0 °F 46.9 °F 89% 29.97 in 7.0 mi South 15.0 mph 23.0 mph N/A   Mostly Cloudy
4:53 AM 50.0 °F 46.9 °F 89% 29.98 in 7.0 mi South 13.8 mph - N/A   Overcast
5:53 AM 50.0 °F 46.9 °F 89% 29.95 in 7.0 mi SSE 11.5 mph - N/A   Mostly Cloudy
6:53 AM 51.1 °F 46.9 °F 86% 29.95 in 6.0 mi South 16.1 mph - 0.00 in   Overcast
7:53 AM 51.1 °F 48.0 °F 89% 29.93 in 6.0 mi South 15.0 mph - N/A   Overcast
8:53 AM 52.0 °F 48.0 °F 86% 29.92 in 7.0 mi South 18.4 mph - N/A   Overcast
9:53 AM 53.1 °F 48.0 °F 83% 29.92 in 7.0 mi South 17.3 mph - N/A   Overcast
10:53 AM 55.9 °F 48.9 °F 77% 29.89 in 7.0 mi South 18.4 mph - N/A   Mostly Cloudy
11:40 AM 55.4 °F 48.2 °F 77% 29.86 in 7.0 mi South 20.7 mph 28.8 mph N/A   Mostly Cloudy
11:53 AM 55.9 °F 48.9 °F 77% 29.86 in 7.0 mi South 19.6 mph 28.8 mph N/A   Mostly Cloudy
12:53 PM 57.0 °F 50.0 °F 77% 29.83 in 7.0 mi South 21.9 mph 29.9 mph N/A   Mostly Cloudy
1:53 PM 57.0 °F 50.0 °F 77% 29.81 in 7.0 mi South 21.9 mph 31.1 mph N/A   Scattered Clouds
2:00 PM 57.2 °F 50.0 °F 77% 29.81 in 7.0 mi South 20.7 mph 28.8 mph N/A   Mostly Cloudy
2:07 PM 57.2 °F 50.0 °F 77% 29.80 in 7.0 mi South 21.9 mph 29.9 mph N/A   Scattered Clouds
2:53 PM 57.0 °F 48.9 °F 74% 29.79 in 7.0 mi South 21.9 mph 31.1 mph N/A   Overcast
4:53 PM 54.0 °F 48.9 °F 83% 29.75 in 6.0 mi South 20.7 mph 36.8 mph N/A   Haze
5:48 PM 53.6 °F 48.2 °F 82% 29.74 in 5.0 mi South 23.0 mph 31.1 mph N/A   Overcast
5:53 PM 53.1 °F 48.9 °F 86% 29.74 in 5.0 mi South 23.0 mph 33.4 mph N/A   Overcast
6:15 PM 53.6 °F 48.2 °F 82% 29.72 in 5.0 mi South 24.2 mph 32.2 mph N/A   Overcast
6:33 PM 53.6 °F 48.2 °F 82% 29.72 in 5.0 mi South 25.3 mph 34.5 mph N/A   Haze
6:53 PM 54.0 °F 50.0 °F 86% 29.72 in 5.0 mi South 24.2 mph 33.4 mph N/A   Overcast
7:53 PM 53.1 °F 50.0 °F 89% 29.71 in 6.0 mi South 25.3 mph 34.5 mph 0.02 in   Overcast
9:50 PM 53.6 °F 50.0 °F 88% 29.69 in 6.0 mi South 23.0 mph 32.2 mph 0.00 in   Overcast
9:53 PM 53.1 °F 50.0 °F 89% 29.70 in 6.0 mi South 24.2 mph 32.2 mph 0.00 in   Overcast
10:38 PM 53.6 °F 50.0 °F 88% 29.67 in 6.0 mi South 27.6 mph 36.8 mph 0.00 in   Overcast
10:51 PM 53.6 °F 50.0 °F 88% 29.67 in 5.0 mi South 25.3 mph 35.7 mph 0.00 in   Overcast
10:53 PM 53.1 °F 50.0 °F 89% 29.68 in 5.0 mi South 27.6 mph 35.7 mph 0.01 in Rain Light Rain
11:53 PM 53.1 °F 50.0 °F 89% 29.65 in 5.0 mi South 26.5 mph 35.7 mph 0.00 in   Overcast